Regional Weather Roundup
Issued by NWS Cleveland, OH

Home | Current Version | Previous Version | Graphics & Text | Print | Product List | Glossary On
Versions: 1 2 3 4 5 6 7 8 9 10 11 12 13 14 15 16 17 18 19 20 21 22 23 24 25 26 27 28 29 30 31 32 33 34 35 36 37 38 39 40 41 42 43 44 45 46 47 48 49 50
000
ASUS41 KCLE 021310
RWRCLE
OHIO REGIONAL WEATHER ROUNDUP
NATIONAL WEATHER SERVICE WILMINGTON, OH
900 AM EDT SUN AUG 02 2015

NOTE: "FAIR" INDICATES FEW OR NO CLOUDS BELOW 12,000 FEET WITH NO
SIGNIFICANT WEATHER AND/OR OBSTRUCTIONS TO VISIBILITY.

OHZ001>008-015>018-024>027-034-035-043-044-021400-
   NORTHWEST OHIO

CITY           SKY/WX    TMP DP  RH WIND       PRES   REMARKS
DEFIANCE       SUNNY     73  64  73 VRB3      29.93R
FINDLAY        PTSUNNY   74  62  66 W10       29.94R
TOLEDO EXPRESS MOSUNNY   71  63  75 W13       29.91S
TOLEDO EXEC    MOSUNNY   73  62  68 SW8       29.92S
LIMA           SUNNY     72  61  68 SW10      29.96S
$$

OHZ009>014-019>023-028>033-038-089-021400-
   NORTHEAST OHIO

CITY           SKY/WX    TMP DP  RH WIND       PRES   REMARKS
CLE-HOPKINS    MOSUNNY   72  61  68 SW9       29.94S
CLE-LAKEFRONT  SUNNY     74  60  61 SW8       29.91S
CUY CO. ARPT   MOSUNNY   73  61  64 W9        29.93S
LORAIN-ELYRIA  SUNNY     71  61  70 W9        29.94R
ASHTABULA      SUNNY     70  59  68 SW5       29.93S
AKRON-CANTON   MOSUNNY   72  60  66 W9        29.95S
WOOSTER        SUNNY     71  61  70 SW6       29.96S
MANSFIELD      SUNNY     72  60  66 SW12      29.96S
YOUNGSTOWN     MOSUNNY   70  60  70 SW9       29.94S
$$

OHZ042-051>053-060>062-070>072-077>081-021400-
  SOUTHWEST OHIO

CITY           SKY/WX    TMP DP  RH WIND       PRES   REMARKS
CINC-COVINGTON NOT AVBL
CINC-LUNKEN    SUNNY     69  65  86 CALM      30.00R
HAMILTON       SUNNY     71  63  75 CALM      30.01R
DAYTON         MOSUNNY   73  62  68 SW8       30.00R
WRIGHT-PAT AFB SUNNY     71  62  73 S3        29.99R
DAYTON GENERAL SUNNY     72  59  63 SW5       30.00R
WILMINGTON     SUNNY     73  61  65 SW5       30.00R
$$

OHZ036-037-039>041-045>050-054>059-063>069-073>076-082>088-021400-
  CENTRAL AND SOUTHEAST OHIO

CITY           SKY/WX    TMP DP  RH WIND       PRES   REMARKS
COLUMBUS       MOSUNNY   71  60  68 SW3       29.98R
OSU AIRPORT    SUNNY     74  60  61 W8        29.97S
BOLTON FIELD   SUNNY     72  63  73 W72       29.99R
RICKENBACK AFB SUNNY     68  61  78 SW5       29.98S
NEWARK         SUNNY     73  62  68 SW3       29.98R
MARION         SUNNY     73  59  61 W8        29.97R
LANCASTER      SUNNY     72  61  68 CALM      29.99R
ZANESVILLE     MOSUNNY   70  59  68 CALM      29.98R
NEW PHILLY     SUNNY     69  61  75 CALM      29.97S
$$



USA.gov is the U.S. government's official web portal to all federal, state and local government web resources and services.